Regional Weather Roundup
Issued by NWS

Home | Current Version | Previous Version | Graphics & Text | Print | Product List | Glossary On
Versions: 1 2 3 4 5 6 7 8 9 10 11 12 13 14 15 16 17 18 19 20 21 22 23 24 25 26 27 28 29 30 31 32 33 34 35 36 37 38 39 40 41 42 43 44 45 46 47 48 49 50
000
ASUS45 KSLC 241410
RWRUT

UTAH REGIONAL WEATHER ROUNDUP
NATIONAL WEATHER SERVICE SALT LAKE CITY UT
800 AM MDT MON APR 24 2017

UTZ001>011-023>025-241500-

NORTHERN UTAH

CITY           SKY/WX    TMP DP  RH WIND       PRES   REMARKS
BRIGHAM CITY   CLOUDY    47  40  76 N8        29.70S
DUGWAY         PTSUNNY   45  39  81 VRB2      29.70S
HILL AFB       PTSUNNY   46  33  60 SE12      29.70F
LOGAN          CLOUDY    42  39  89 W5        29.70F
OGDEN          CLOUDY    47  35  63 SE8       29.69F
SALT LAKE CITY CLOUDY    52  40  63 SE9       29.69F
TOOELE VALLEY  CLOUDY    48  37  66 S22G28    29.68F
WENDOVER       CLOUDY    52  29  41 W10       29.70S
HEBER CITY     CLOUDY    36  36 100 CALM      29.77F FOG
WEST JORDAN    CLOUDY    52  46  81 SE14      29.71S

$$

UTZ011>015-024>027-241500-

CENTRAL/NORTHEAST UTAH

CITY           SKY/WX    TMP DP  RH WIND       PRES   REMARKS
PROVO AIRPORT  CLOUDY    44  40  85 E3        29.75F
MOAB/CANYONLAN PTSUNNY   52  34  50 CALM      29.76S
DELTA          PTSUNNY   43  37  81 CALM      29.73F
PRICE          CLOUDY    44  34  67 CALM      29.80S
RICHFIELD      PTSUNNY   37  37 100 CALM      29.80
ROOSEVELT      MOSUNNY   41  32  70 W6        29.81S
VERNAL         CLOUDY    47  37  68 N3        29.79F

$$

UTZ013>016-019>022-027-241500-

SOUTHERN UTAH

CITY           SKY/WX    TMP DP  RH WIND       PRES   REMARKS
BRYCE CANYON   MOSUNNY   34  25  69 W3        29.88F
CEDAR CITY     MOSUNNY   39  32  76 CALM      29.77F
MILFORD        PTSUNNY   42  36  79 S9        29.74F
ST GEORGE      CLOUDY    55  26  32 S3        29.73R
HANKSVILLE     CLOUDY    46  32  57 NW3       29.79F
KANAB          SUNNY     46  30  53 NE2       29.84
BLANDING       PTSUNNY   51  27  40 NE6       29.91R

$$

REGIONAL REPORTS     COLORADO/ARIZONA

CITY           SKY/WX    TMP DP  RH WIND       PRES   REMARKS
CRAIG, CO      CLOUDY    43  37  79 CALM      29.83F
GRAND JUNCTION MOSUNNY   52  34  50 CALM      29.79R
RIFLE, CO      CLOUDY    48  37  65 CALM      29.81S
MONTROSE, CO   MOSUNNY   50  30  46 SE5       29.85R
CORTEZ, CO     CLOUDY    43  29  57 CALM      29.87R
COLORADO CITY    N/A     45  28  53 CALM      29.82S
PAGE, AZ       CLOUDY    58  29  33 NW3       29.77R
GRAND CANYON   PTSUNNY   48  25  40 SW13      29.90R
KINGMAN, AZ    PTSUNNY   59  25  27 SE5       29.77R
FLAGSTAFF, AZ  SUNNY     50  24  36 SW10      29.93R

$$

REGIONAL REPORTS    NEVADA/IDAHO/WYOMING

CITY           SKY/WX    TMP DP  RH WIND       PRES   REMARKS
LAS VEGAS, NV  CLOUDY    65  28  24 S6        29.68R
ELY, NY        CLOUDY    38  29  70 S13       29.78F WCI  30
ELKO, NV       CLOUDY    44  30  57 W14       29.78R
POCATELLO, ID  PTSUNNY   45  38  76 SW3       29.72F
BURLEY, ID     CLOUDY    44  38  79 SW3       29.69S
FORT BRIDGER,  PTSUNNY   39  31  72 S8        29.80S WCI  34
EVANSTON, WY   CLOUDY    36  28  73 S6        29.77F WCI  31
ROCK SPRINGS,  CLOUDY    38  33  82 SE7       29.78F WCI  33
KEMMERER, WY     N/A     32  30  93 N6        29.77F WCI  26

$$



USA.gov is the U.S. government's official web portal to all federal, state and local government web resources and services.